Flag for U.S.A. Weather past 2 weeks in Charleston, South Carolina, U.S.A.

Now
69 °F

Broken clouds.


Feels Like: 69 °F
Forecast: 55 / 66 °F
Wind: 16 mph from Northeast

Location: Charleston Air Force Base Reporting Station


UV Index: 0 (Low)

Visibility: 10 mi


Pressure: 30.19 "Hg

Humidity: 57%

Dew point: 53 °F

Location of CharlestonLocation

Historic Weather in Charleston

°F

Charleston temperature yesterday

Maximum temperature yesterday: 73 °F (at 3:56 PM)
Minimum temperature yesterday: 43 °F (at 6:56 AM)
Average temperature yesterday: 57 °F

Past Weeks' High & Low Weather Summary

 TemperatureHumidityPressure
High86 °F (Apr 4, 3:56 PM)94% (Apr 7, 9:56 PM)30.45 "Hg (Apr 7, 9:56 PM)
Low42 °F (Apr 16, 6:56 AM)22% (Apr 10, 12:56 PM)29.61 "Hg (Apr 8, 5:56 PM)
Average66 °F65%30.06 "Hg
* Reported Apr 3 1:56 PM — Apr 18 1:56 PM, Charleston, Weather by CustomWeather, © 2014

Note: Actual official high and low records may vary slightly from our data, if they occured in-between our weather recording intervals... More about our weather records

Advertising

Historic Weather Conditions — Data for Previous 24 hours

 ConditionsComfort  
Time TempWeatherWind HumidityBarometerVisibility
1:56 PM
Apr 18
69 °FBroken clouds.16 mph57%30.19 "Hg10 mi
12:56 PM69 °FBroken clouds.13 mph53%30.23 "Hg10 mi
11:56 AM64 °FPartly sunny.12 mph58%30.26 "Hg10 mi
10:56 AM62 °FMostly cloudy.9 mph58%30.28 "Hg10 mi
9:56 AM59 °FMostly cloudy.9 mph60%30.29 "Hg10 mi
8:56 AM57 °FMostly cloudy.16 mph64%30.28 "Hg10 mi
7:56 AM56 °FCloudy.8 mph75%30.28 "Hg10 mi
6:56 AM55 °FPartly cloudy.9 mph80%30.28 "Hg7 mi
5:56 AM55 °FPassing clouds.9 mph83%30.27 "Hg10 mi
4:56 AM56 °FPassing clouds.10 mph84%30.28 "Hg10 mi
3:56 AM57 °FPartly cloudy.10 mph81%30.29 "Hg10 mi
2:56 AM58 °FPassing clouds.9 mph78%30.31 "Hg10 mi
1:56 AM58 °FPassing clouds.8 mph78%30.31 "Hg10 mi
12:56 AM57 °FPassing clouds.7 mph81%30.33 "Hg10 mi
11:56 PM
Apr 17
58 °FPassing clouds.8 mph78%30.34 "Hg10 mi
10:56 PM59 °FPassing clouds.8 mph72%30.37 "Hg10 mi
9:56 PM60 °FClear.8 mph67%30.37 "Hg10 mi
8:56 PM61 °FPassing clouds.9 mph62%30.37 "Hg10 mi
7:56 PM63 °FPartly sunny.12 mph56%30.35 "Hg10 mi
6:56 PM65 °FPassing clouds.13 mph52%30.35 "Hg10 mi
5:56 PM68 °FPassing clouds.16 mph49%30.33 "Hg10 mi
4:56 PM70 °FPassing clouds.15 mph47%30.34 "Hg10 mi
3:56 PM73 °FPassing clouds.12 mph38%30.36 "Hg10 mi
Weather by CustomWeather, © 2014

See weather overview